Starlink 30984

operational
NORAD ID: 58480 Int'l Des: 2023-186 Owner: SPXS Country: US Constellation: starlink
LEOCIRCULAR

Starlink 30984について

説明を読み込み中...

リアルタイム位置

3D地球を読み込み中...

次回通過

高度履歴

Altitude vs Time

uPlot chart will show altitude changes over time

軌道要素

1 58480U 23186H 25258.83167689 .00000527 00000-0 54051-4 0 9998
2 58480 43.0023 297.1204 0001230 274.8595 85.2107 15.02537924 99559
Epoch: Sep 15, 2025 • Age: 22 hours

現在のステータス

高度 566.8 km
速度 7.58 km/s
衛星直下点 -30.56°S, 110.36°W
打ち上げ日 Dec 3, 2023
運用期間 1.7 years
タイプ internet

技術仕様

分類 Payload
質量 730.00 kg
乾燥質量 700.00 kg
総質量 730.00 kg
長さ 0.30 m
直径 4.10 m
スパン 29.00 m
形状 Box + pan
製造者 SPXS
バスタイプ Starlink V2M
フェーズステータス In Orbit
所有者/国 SPXS/US

大規模コンステレーション

Loading constellations...